Weather in Pokrov

Russia / Vladimir Oblast     56°29′13″N   39°09′35″E
temp.,
°C
wind,
m/s
gust,
m/s
humid.,
%
clouds,
%
prec.,
mm/h
press.,
hPa
HPBL,
m
3 march, wed
wed300:00−3nnw6128995 0.3 1009662
03:00−7nw6129162 0.3 1012362
06:00−8nw6149453 0.0 1013390
09:00−7nw6139172 0.0 1013531
12:00−3nw7119164 0.1 1013760
15:000wnw6108882 0.3 10121022
18:00−2w6129498 0.2 1010585
21:00−2w6129398 0.4 1008883
4 march, thu
thu400:00−2wsw71395100 0.2 1004685
03:000wsw71497100 1.2 1001817
06:00+1w91597100 0.7 997946
09:00−1wnw9148796 1.3 9981061
12:00−1wnw7127840 0.0 9991070
15:00−2nw698452 0.1 1000963
18:00−6nw3691100 0.1 1000121
21:00−7nw3393100 0.1 100159
5 march, fri
fri500:00−10nnw339580 0.0 100236
03:00−12nnw239649 0.0 100322
06:00−13nw22960 0.0 100420
09:00−10wnw22947 0.0 100588
12:00−6w238877 0.0 1006402
15:00−4wnw349289 0.6 1008446
18:00−8wnw358965 0.4 100891
21:00−10nw479435 0.4 1011161
6 march, sat
sat600:00−12wnw349536 0.0 101360
03:00−12nw359646 0.1 1014100
06:00−15nw4796100 0.1 1015172
09:00−16nw479160 0.1 1016206
12:00−11nw578724 0.0 1016663
15:00−9nw578262 0.1 1015956
18:00−11w3493100 0.1 1015114
21:00−13wsw479269 0.1 1014102
7 march, sun
sun700:00−13sw510931 0.0 1011180
03:00−11ssw7149340 0.0 1007461
06:00−9ssw81593100 0.4 1001840
09:00−6sw91693100 1.8 9951094
12:00−3sw91494100 1.8 9931152
15:00−7nw5969100 3.3 9921016
18:00−10s347862 0.0 99334
21:00−9wnw6128373 0.7 994388